Location: Ch?enovice
(49.7164°N, 15.2160°E)
Time: 04:59:40
(UTC+00:00)

Cosmos 1455 - Pass Details

Date: 23 May 2024
Orbit: 445 x 461 km, 82.5° (Epoch: 15 June)

Event Time Altitude Azimuth Distance (km) Brightness Sun altitude
Rises 00:25:23 0° 350° (N) 2,461 6.7 -16.9°
Reaches altitude 10° 00:27:27 10° 350° (N) 1,585 5.5 -16.8°
Maximum altitude 00:30:55 89° 76° (ENE) 456 1.8 -16.6°
Enters shadow 00:32:13 36° 171° (S) 732 2.5 -16.5°
